This is the latest recevied weather packets stored in our database for station/object SQ9SMC-13. If no packets are shown the sender has not sent any weather packets the latest 10 day(s).
| Time | Temp. | Humidity | Pressure | Rain* | Wind** | Luminosity | Snow |
|---|---|---|---|---|---|---|---|
| 1777941603 | 15.56° C | 41% | 1013.8 hPa | 0 mm | - | 0 W/m² | - |
| 1777941305 | 15.56° C | 40% | 1013.8 hPa | 0 mm | - | 0 W/m² | - |
| 1777941005 | 15.56° C | 41% | 1013.6 hPa | 0 mm | - | 0 W/m² | - |
| 1777940702 | 15.56° C | 41% | 1013.8 hPa | 0 mm | - | 0 W/m² | - |
| 1777940403 | 15° C | 42% | 1013.9 hPa | 0 mm | - | 0 W/m² | - |
| 1777940102 | 15.56° C | 43% | 1013.9 hPa | 0 mm | - | 0 W/m² | - |
| 1777939803 | 15.56° C | 42% | 1014 hPa | 0 mm | - | 0 W/m² | - |
| 1777939505 | 16.11° C | 41% | 1014 hPa | 0 mm | - | 0 W/m² | - |
| 1777939205 | 16.11° C | 39% | 1014 hPa | 0 mm | - | 0 W/m² | - |
| 1777938904 | 16.67° C | 39% | 1013.9 hPa | 0 mm | - | 0 W/m² | - |
| 1777938604 | 16.67° C | 39% | 1014 hPa | 0 mm | - | 0 W/m² | - |
| 1777938303 | 16.67° C | 39% | 1014.1 hPa | 0 mm | - | 0 W/m² | - |
| 1777938006 | 16.67° C | 39% | 1014.2 hPa | 0 mm | - | 0 W/m² | - |
| 1777937703 | 17.22° C | 39% | 1014.2 hPa | 0 mm | - | 0 W/m² | - |
| 1777937403 | 17.22° C | 38% | 1014.2 hPa | 0 mm | - | 0 W/m² | - |
| 1777937103 | 17.22° C | 38% | 1014.4 hPa | 0 mm | - | 0 W/m² | - |
| 1777936803 | 17.22° C | 38% | 1014.1 hPa | 0 mm | - | 0 W/m² | - |
| 1777936504 | 17.22° C | 38% | 1014.2 hPa | 0 mm | - | 0 W/m² | - |
| 1777936203 | 17.78° C | 38% | 1014.3 hPa | 0 mm | - | 0 W/m² | - |
| 1777935903 | 17.78° C | 38% | 1014.3 hPa | 0 mm | - | 0 W/m² | - |
| 1777935605 | 17.78° C | 38% | 1014.2 hPa | 0 mm | - | 0 W/m² | - |
| 1777935302 | 17.78° C | 38% | 1014.4 hPa | 0 mm | - | 0 W/m² | - |
| 1777935004 | 17.78° C | 39% | 1014.3 hPa | 0 mm | - | 0 W/m² | - |
| 1777934704 | 17.78° C | 39% | 1014.3 hPa | 0 mm | - | 0 W/m² | - |
| 1777934402 | 17.78° C | 39% | 1014.4 hPa | 0 mm | - | 0 W/m² | - |
* Rain latest hour (hover to see other rain measurements)
** Current wind speed in m/s (hover to see current wind gust speed)